Weather History for Spokane, WA

Change the Weather History Date:

Thursday, August 2, 2012

  Actual Average Record
Temperature  
Mean Temperature 69 °F 72 °F  
Max Temperature 81 °F 86 °F 100 °F (1961)
Min Temperature 57 °F 58 °F 43 °F (1956)
Degree Days  
Heating Degree Days 0 0  
Month to date heating degree days 0 0  
Since 1 June heating degree days 195 168  
Since 1 July heating degree days 20 32  
Cooling Degree Days 4 7  
Month to date cooling degree days 10 14  
Year to date cooling degree days 291 257  
Since 1 June cooling degree days 281 243  
Growing Degree Days 19 (Base 50)    
Moisture  
Dew Point 43 °F    
Average Humidity 47    
Maximum Humidity 67    
Minimum Humidity 26    
Precipitation  
Precipitation 0.00 in 0.01 in 0.66 in (1996)
Month to date precipitation 0.00 0.03  
Year to date precipitation 13.83 9.55  
Snow  
Snow 0.00 in 0.00 in 0.00 in (2002)
Month to date snowfall 0.0 0.0  
Since 1 June snowfall 0.0 0.0  
Since 1 July snowfall 0.0 0.0  
Snow Depth 0.00 in    
Sea Level Pressure  
Sea Level Pressure 29.96 in    
Wind  
Wind Speed 9 mph (WSW)    
Max Wind Speed 17 mph    
Max Gust Speed 21 mph    
Visibility 10 miles    
Events      
T = Trace of Precipitation, MM = Missing Value Source: NWS Daily Summary

Daily Weather History Graph

Daily Weather History Graph

Search for Another Location

Airport:

Trip Planner

Search our weather history database for the weather conditions in past years. The results will help you decide how hot, cold, wet, or windy it might be!

Date:

Astronomy

Aug. 02, 2012 Rise Set
Actual Time 5:29 AM PDT 8:22 PM PDT
Civil Twilight 4:53 AM PDT 8:57 PM PDT
Nautical Twilight 4:07 AM PDT 9:43 PM PDT
Astronomical Twilight 3:12 AM PDT 10:38 PM PDT
Moon 8:20 PM PDT (8/2) 6:19 AM PDT (8/2)
Length of Visible Light 16h 04m
Length of Day
14h 52m
Waxing Gibbous, 99% of the Moon is Illuminated
Aug 2
Waxing Gibbous
Aug 9
Last Quarter
Aug 17
New
Aug 24
First Quarter
Aug 31
Full

Hourly Weather History & Observations

Time (PDT) Temp. Dew Point Humidity Pressure Visibility Wind Dir Wind Speed Gust Speed Precip Events Conditions
12:53 AM 70.0 °F 37.9 °F 31% 29.93 in 10.0 mi SSW 10.4 mph - N/A   Partly Cloudy
1:53 AM 64.4 °F 39.2 °F 40% 29.97 in 10.0 mi South 6.9 mph - N/A   Partly Cloudy
2:53 AM 61.0 °F 39.0 °F 44% 29.93 in 10.0 mi South 8.1 mph - N/A   Mostly Cloudy
3:53 AM 60.1 °F 41.0 °F 49% 29.93 in 10.0 mi South 9.2 mph - N/A   Mostly Cloudy
4:53 AM 60.1 °F 42.1 °F 51% 29.94 in 10.0 mi South 9.2 mph - N/A   Scattered Clouds
5:53 AM 57.9 °F 44.1 °F 60% 29.95 in 10.0 mi South 6.9 mph - N/A   Mostly Cloudy
6:53 AM 57.9 °F 46.0 °F 65% 29.96 in 10.0 mi SSW 12.7 mph 20.7 mph N/A   Mostly Cloudy
7:53 AM 61.0 °F 46.0 °F 58% 29.98 in 10.0 mi SW 11.5 mph - N/A   Mostly Cloudy
8:53 AM 63.0 °F 46.0 °F 54% 29.99 in 10.0 mi SW 9.2 mph - N/A   Mostly Cloudy
9:53 AM 66.9 °F 46.0 °F 47% 29.99 in 10.0 mi SW 10.4 mph - N/A   Mostly Cloudy
10:53 AM 70.0 °F 45.0 °F 41% 30.00 in 10.0 mi SW 8.1 mph - N/A   Mostly Cloudy
11:53 AM 73.4 °F 44.6 °F 36% 30.00 in 10.0 mi Calm Calm - N/A   Mostly Cloudy
12:53 PM 75.0 °F 42.1 °F 31% 29.98 in 10.0 mi South 6.9 mph - N/A   Mostly Cloudy
1:53 PM 77.0 °F 43.0 °F 30% 29.97 in 10.0 mi Variable 5.8 mph - N/A   Mostly Cloudy
2:53 PM 78.8 °F 42.8 °F 28% 30.00 in 10.0 mi WNW 8.1 mph 16.1 mph N/A   Mostly Cloudy
3:53 PM 80.1 °F 45.0 °F 29% 29.95 in 10.0 mi WNW 8.1 mph - N/A   Mostly Cloudy
4:53 PM 80.1 °F 45.0 °F 29% 29.94 in 10.0 mi West 10.4 mph - N/A   Scattered Clouds
5:53 PM 80.1 °F 43.0 °F 27% 29.92 in 10.0 mi WNW 6.9 mph - N/A   Mostly Cloudy
6:53 PM 79.0 °F 43.0 °F 28% 29.92 in 10.0 mi WNW 12.7 mph - N/A   Scattered Clouds
7:53 PM 75.9 °F 42.1 °F 30% 29.93 in 10.0 mi NNW 6.9 mph - N/A   Scattered Clouds
8:53 PM 73.0 °F 42.1 °F 33% 29.95 in 10.0 mi North 10.4 mph - N/A   Scattered Clouds
9:53 PM 71.6 °F 42.8 °F 35% 30.01 in 10.0 mi North 13.8 mph - N/A   Mostly Cloudy
10:53 PM 68.0 °F 39.0 °F 35% 29.98 in 10.0 mi North 8.1 mph - N/A   Scattered Clouds
11:53 PM 64.9 °F 37.9 °F 37% 29.99 in 10.0 mi NNW 8.1 mph - N/A   Partly Cloudy